Torna al catalogo

FENGYUN 1C DEB

AttivoPO
NORAD 33733·DEBRIS·🇨🇳 China

Lanciato May 10, 1999 da Taiyuan Satellite Launch Center

Loading…

Prossimi Passaggi (prossime 24 ore)

TLE

AggiornatoSource: Space-Track

Epoca: Sep 13, 2026, 05:32 UTC

1 33733U 99025DHW 26256.23090421  .00004705  00000-0  16155-2 0  9992
2 33733  99.0980   0.3701 0074448  92.4802 298.3400 14.35033711943807

Traccia FENGYUN 1C DEB in tempo reale con AllMySat

Download on the App Store